Airfield :
LOGIN :

Register | Disclaimer

   EN    FR    IT 

 










Legend :    VFR   Marginal VFR   IFR   Intensive IFR   Very Intensive IFR
Visi :
Ceiling :
>= 8 km
>= 3000ft
5 to 8 km
1000 to 3000 ft
1500m to 5 km
500 to 1000 ft
800 to 1500m
200 to 500 ft
< 800m
< 200 ft
Symbols :   Thunderstorms  Fog  Heavy snow  Heavy precipitations  Wind > 20 kt
SIGMETs :     Misc.  Thunderstorms  Icing  Turbulence  Mountain Waves  Volcanic Ashes







- Airport Elevation : 124 ft
- IATA code : AVN
- Download approach charts


LFMV - Avignon Caumont

CURRENT METAR :
  • 261000Z AUTO 26003KT 200V320 CAVOK 33/18 Q1022 NOSIG

EXPIRED METARs :
  • 260930Z AUTO 33003KT 270V030 CAVOK 32/18 Q1022 NOSIG
  • 260900Z AUTO 32004KT 270V360 CAVOK 31/18 Q1022 NOSIG
  • 260830Z AUTO 35004KT 280V060 CAVOK 30/18 Q1022 NOSIG
  • 260800Z AUTO VRB02KT CAVOK 29/18 Q1023 NOSIG
  • 260730Z AUTO VRB02KT CAVOK 27/17 Q1023 NOSIG

TAF TAF LFMV
Valid from the 26 at 09:00 until the 27 at 09:00 UTC


260800Z 2609/2709 VRB03KT CAVOK
BECMG 2611/2613 22012KT
BECMG 2618/2620 VRB03KT
ATIS : +33 4 90 84 32 84
No reported NOTAMs for that airfield.



MET'MAP, your aeronautical weather chart ! - Copyright ORBIFLY December 2007 - Disclaimer

ORBIFLY MET'MAP TEAM :

Programming & Development : Alexandra Zaïnal
Concept & Development : Baudouin d'Aumeries
Co-Development & Prog : Marc-Olivier Méhu
Technical & hardware support : Manuel Goepfert

Contact : metmap@orbifly.com




SOURCES & CREDITS :

   NOAA